DLH442 EDDF-KLAX

Flight info

Callsign DLH442
Flight time N/A
Altitude 34000
Route OBOKA3D/07C OBOKA Z28 DIBIR DCT BUDIP DCT MIMVA DCT GETNO DCT NIBOG DCT PIKIL/M086F350 DCT 56N020W 55N030W 53N040W 51N050W DCT ALLRY/N0497F360 N482C MIILS/N0505F380 Q907 SIKBO Q905 HOCKE Q824 FNT J36 DUTYS J16 MCW J148 ONL/N0495F400 J114 SNY J84 FROGS J100 SAKES Q70 BAWER Q96 DODDL DCT HAKMN ANJLL4
Aircraft B748/H-SDE3FGHIM1M2RWXY/LB1

Departure

Time 2026-05-08 08:08
Airport Frankfurt Main Airport (EDDF)

Arrival

Time N/A
Airport Los Angeles International Airport (KLAX)
Time Latitude Longitude Altitude Speed Heading
2026-05-08 07:35 50.04774 8.56496 372 ft 0 kts 339°
2026-05-08 07:55 50.04770 8.56498 372 ft 2 kts 339°
2026-05-08 07:56 50.04753 8.56508 374 ft 3 kts 339°
2026-05-08 07:56 50.04735 8.56519 373 ft 3 kts 339°
2026-05-08 07:56 50.04716 8.56529 372 ft 3 kts 322°
2026-05-08 07:56 50.04708 8.56554 372 ft 3 kts 239°
2026-05-08 07:57 50.04715 8.56570 372 ft 0 kts 226°
2026-05-08 08:01 50.04715 8.56569 371 ft 0 kts 226°
2026-05-08 08:01 50.04707 8.56556 373 ft 3 kts 227°
2026-05-08 08:01 50.04692 8.56523 375 ft 5 kts 238°
2026-05-08 08:01 50.04675 8.56467 375 ft 7 kts 245°
2026-05-08 08:02 50.04656 8.56388 377 ft 9 kts 250°
2026-05-08 08:02 50.04632 8.56289 374 ft 11 kts 249°
2026-05-08 08:02 50.04603 8.56168 373 ft 13 kts 249°
2026-05-08 08:02 50.04568 8.56027 373 ft 15 kts 243°
2026-05-08 08:03 50.04493 8.55944 377 ft 13 kts 199°
2026-05-08 08:03 50.04403 8.55910 376 ft 14 kts 181°
2026-05-08 08:03 50.04306 8.55949 375 ft 14 kts 166°
2026-05-08 08:03 50.04213 8.55921 375 ft 13 kts 189°
2026-05-08 08:04 50.04140 8.55946 376 ft 11 kts 161°
2026-05-08 08:04 50.04067 8.55952 375 ft 10 kts 205°
2026-05-08 08:04 50.04031 8.55872 372 ft 10 kts 250°
2026-05-08 08:04 50.04005 8.55764 374 ft 12 kts 249°
2026-05-08 08:05 50.03974 8.55635 374 ft 14 kts 249°
2026-05-08 08:05 50.03939 8.55486 372 ft 16 kts 249°
2026-05-08 08:05 50.03898 8.55316 374 ft 18 kts 249°
2026-05-08 08:05 50.03851 8.55127 376 ft 20 kts 249°
2026-05-08 08:06 50.03802 8.54918 374 ft 21 kts 250°
2026-05-08 08:06 50.03749 8.54693 376 ft 23 kts 250°
2026-05-08 08:06 50.03691 8.54453 375 ft 24 kts 250°
2026-05-08 08:06 50.03639 8.54307 375 ft 11 kts 206°
2026-05-08 08:07 50.03582 8.54325 373 ft 10 kts 160°
2026-05-08 08:07 50.03505 8.54372 368 ft 8 kts 148°
2026-05-08 08:07 50.03493 8.54408 370 ft 3 kts 102°
2026-05-08 08:07 50.03494 8.54433 370 ft 1 kts 83°
2026-05-08 08:08 50.03502 8.54467 369 ft 16 kts 70°
2026-05-08 08:08 50.03656 8.55113 367 ft 112 kts 70°
2026-05-08 08:08 50.04023 8.56653 462 ft 183 kts 70°
2026-05-08 08:08 50.04460 8.58532 1584 ft 182 kts 70°
2026-05-08 08:09 50.04866 8.60448 2447 ft 189 kts 70°
2026-05-08 08:09 50.05311 8.62316 3134 ft 192 kts 69°
2026-05-08 08:09 50.05767 8.64292 3854 ft 197 kts 70°
2026-05-08 08:09 50.06220 8.66324 4558 ft 201 kts 71°
2026-05-08 08:10 50.06691 8.68449 5056 ft 219 kts 71°
2026-05-08 08:10 50.07374 8.70788 5143 ft 259 kts 51°
2026-05-08 08:10 50.08782 8.72509 5422 ft 252 kts 21°
2026-05-08 08:10 50.10460 8.73399 6249 ft 260 kts 17°
2026-05-08 08:11 50.12195 8.74344 7051 ft 268 kts 20°
2026-05-08 08:11 50.13932 8.75506 7820 ft 276 kts 23°
2026-05-08 08:11 50.15706 8.76770 8606 ft 283 kts 23°
2026-05-08 08:11 50.17521 8.78016 9403 ft 288 kts 22°
2026-05-08 08:12 50.19381 8.79259 10195 ft 292 kts 22°
2026-05-08 08:12 50.21257 8.80523 10932 ft 296 kts 22°
2026-05-08 08:12 50.23162 8.81801 11681 ft 299 kts 19°
2026-05-08 08:12 50.25220 8.82331 12238 ft 306 kts 353°
2026-05-08 08:13 50.27272 8.81416 12816 ft 311 kts 328°
2026-05-08 08:13 50.28920 8.79218 13420 ft 316 kts 304°
2026-05-08 08:13 50.29903 8.76136 14021 ft 322 kts 286°
2026-05-08 08:13 50.30466 8.72700 14550 ft 330 kts 282°
2026-05-08 08:14 50.31027 8.69167 15071 ft 340 kts 285°
2026-05-08 08:14 50.31784 8.65614 15612 ft 349 kts 289°
2026-05-08 08:14 50.32652 8.62019 16138 ft 358 kts 289°
2026-05-08 08:14 50.33486 8.58294 16694 ft 368 kts 287°
2026-05-08 08:15 50.34293 8.54440 17238 ft 377 kts 287°
2026-05-08 08:15 50.35137 8.50484 17811 ft 387 kts 288°
2026-05-08 08:15 50.36023 8.46457 18368 ft 397 kts 288°
2026-05-08 08:15 50.36927 8.42322 18878 ft 405 kts 287°
2026-05-08 08:16 50.37512 8.37971 19382 ft 412 kts 274°
2026-05-08 08:16 50.37414 8.33528 19905 ft 418 kts 261°
2026-05-08 08:16 50.36685 8.29091 20424 ft 424 kts 253°
2026-05-08 08:16 50.35787 8.24600 20966 ft 430 kts 252°
2026-05-08 08:17 50.34866 8.20112 21481 ft 435 kts 252°
2026-05-08 08:17 50.33954 8.15570 22030 ft 439 kts 253°
2026-05-08 08:17 50.33060 8.11058 22544 ft 443 kts 253°
2026-05-08 08:17 50.32134 8.06442 23100 ft 446 kts 253°
2026-05-08 08:18 50.31194 8.01813 23657 ft 448 kts 252°
2026-05-08 08:18 50.30402 7.97104 24135 ft 449 kts 261°
2026-05-08 08:18 50.30179 7.92225 24620 ft 450 kts 271°
2026-05-08 08:18 50.30546 7.87362 25110 ft 451 kts 282°
2026-05-08 08:19 50.31491 7.82690 25627 ft 453 kts 292°
2026-05-08 08:19 50.32777 7.78187 26133 ft 453 kts 293°
2026-05-08 08:19 50.34121 7.73732 26633 ft 453 kts 298°
2026-05-08 08:19 50.35907 7.69663 27161 ft 455 kts 309°
2026-05-08 08:20 50.38161 7.66174 27715 ft 457 kts 319°
2026-05-08 08:20 50.40812 7.63401 28277 ft 459 kts 330°
2026-05-08 08:20 50.43713 7.61295 28844 ft 460 kts 334°
2026-05-08 08:20 50.46636 7.59280 29395 ft 459 kts 334°
2026-05-08 08:21 50.49566 7.57278 29836 ft 461 kts 334°
2026-05-08 08:21 50.52504 7.55254 30249 ft 462 kts 334°
2026-05-08 08:21 50.55443 7.53172 30609 ft 463 kts 329°
2026-05-08 08:21 50.58184 7.50549 31006 ft 461 kts 324°
2026-05-08 08:22 50.60877 7.47791 31375 ft 462 kts 324°
2026-05-08 08:22 50.63570 7.45018 31775 ft 463 kts 324°
2026-05-08 08:22 50.66265 7.42255 32170 ft 463 kts 324°
2026-05-08 08:23 50.71360 7.37031 32905 ft 463 kts 324°
2026-05-08 08:23 50.73914 7.33987 33331 ft 458 kts 314°
2026-05-08 08:23 50.76045 7.30296 33766 ft 453 kts 303°
2026-05-08 08:23 50.77848 7.26316 34119 ft 452 kts 302°
2026-05-08 08:24 50.79678 7.22215 34124 ft 460 kts 302°
2026-05-08 08:24 50.83413 7.13817 34140 ft 474 kts 302°
2026-05-08 08:25 50.87265 7.05162 34142 ft 483 kts 302°
2026-05-08 08:25 50.91114 6.96463 34136 ft 482 kts 302°
2026-05-08 08:26 50.94969 6.87745 34129 ft 483 kts 302°
2026-05-08 08:26 50.98814 6.79011 34132 ft 483 kts 302°
2026-05-08 08:27 51.02651 6.70269 34128 ft 483 kts 302°
2026-05-08 08:27 51.06485 6.61505 34126 ft 484 kts 302°
2026-05-08 08:28 51.10322 6.52701 34135 ft 484 kts 302°
2026-05-08 08:28 51.14146 6.43894 34137 ft 484 kts 302°
2026-05-08 08:29 51.17973 6.35049 34130 ft 485 kts 302°
2026-05-08 08:29 51.21798 6.26183 34128 ft 485 kts 302°
2026-05-08 08:30 51.25613 6.17305 34125 ft 487 kts 302°
2026-05-08 08:30 51.31230 6.03802 34126 ft 486 kts 301°
2026-05-08 08:31 51.34950 5.94766 34125 ft 486 kts 300°
2026-05-08 08:31 51.38805 5.85881 34137 ft 490 kts 310°
2026-05-08 08:32 51.43926 5.78598 34136 ft 494 kts 319°
2026-05-08 08:32 51.49209 5.71643 34136 ft 494 kts 314°
2026-05-08 08:33 51.54232 5.64131 34138 ft 494 kts 316°
2026-05-08 08:33 51.59436 5.56898 34136 ft 494 kts 315°
2026-05-08 08:34 51.64566 5.49417 34135 ft 494 kts 315°
2026-05-08 08:34 51.69675 5.42128 34126 ft 495 kts 316°
2026-05-08 08:35 51.74787 5.34714 34130 ft 494 kts 315°
2026-05-08 08:35 51.79919 5.27294 34133 ft 495 kts 315°
2026-05-08 08:36 51.85075 5.19795 34132 ft 500 kts 315°
2026-05-08 08:36 51.90255 5.12247 34132 ft 501 kts 315°
2026-05-08 08:37 51.95428 5.04679 34126 ft 500 kts 315°
2026-05-08 08:37 52.00589 4.97107 34134 ft 500 kts 315°
2026-05-08 08:38 52.05738 4.89527 34137 ft 500 kts 315°
2026-05-08 08:38 52.10894 4.81911 34132 ft 501 kts 315°
2026-05-08 08:39 52.16045 4.74278 34133 ft 501 kts 315°
2026-05-08 08:39 52.21192 4.66627 34122 ft 499 kts 315°
2026-05-08 08:40 52.26319 4.58980 34126 ft 499 kts 315°
2026-05-08 08:40 52.31442 4.51314 34128 ft 500 kts 315°
2026-05-08 08:41 52.36557 4.43635 34129 ft 499 kts 315°
2026-05-08 08:41 52.41671 4.35932 34135 ft 499 kts 315°
2026-05-08 08:42 52.46776 4.28217 34139 ft 498 kts 315°
2026-05-08 08:42 52.51865 4.20499 34145 ft 498 kts 315°
2026-05-08 08:43 52.56955 4.12758 34148 ft 499 kts 315°
2026-05-08 08:43 52.62038 4.04998 34144 ft 498 kts 315°
2026-05-08 08:44 52.67121 3.97214 34154 ft 500 kts 315°
2026-05-08 08:44 52.72202 3.89407 34150 ft 499 kts 314°
2026-05-08 08:45 52.77241 3.81639 34154 ft 499 kts 314°
2026-05-08 08:45 52.82306 3.73804 34151 ft 499 kts 314°
2026-05-08 08:46 52.87367 3.65949 34150 ft 499 kts 314°
2026-05-08 08:46 52.92430 3.58066 34144 ft 499 kts 314°
2026-05-08 08:47 52.97489 3.50160 34145 ft 500 kts 314°
2026-05-08 08:47 53.02543 3.42238 34135 ft 500 kts 314°
2026-05-08 08:48 53.07598 3.34285 34135 ft 500 kts 314°
2026-05-08 08:48 53.11954 3.25415 34145 ft 494 kts 295°
2026-05-08 08:49 53.13235 3.20146 34146 ft 491 kts 283°
2026-05-08 08:49 53.13893 3.14590 34140 ft 489 kts 275°
2026-05-08 08:49 53.14524 3.03338 34149 ft 488 kts 274°
2026-05-08 08:50 53.15624 2.92188 34137 ft 490 kts 283°
2026-05-08 08:50 53.17563 2.81288 34137 ft 491 kts 283°
2026-05-08 08:51 53.19093 2.70230 34150 ft 489 kts 281°
2026-05-08 08:51 53.20754 2.59211 34149 ft 490 kts 283°
2026-05-08 08:52 53.22357 2.48155 34135 ft 491 kts 281°
2026-05-08 08:52 53.23696 2.38857 34141 ft 491 kts 282°
2026-05-08 08:53 53.25563 2.25979 34141 ft 491 kts 281°
2026-05-08 08:53 53.27140 2.14892 34152 ft 491 kts 282°
2026-05-08 08:54 53.28466 2.05584 34147 ft 491 kts 281°
2026-05-08 08:54 53.30014 1.94570 34156 ft 490 kts 282°
2026-05-08 08:55 53.31566 1.83494 34150 ft 489 kts 281°
2026-05-08 08:55 53.33106 1.72395 34156 ft 490 kts 281°
2026-05-08 08:56 53.34638 1.61290 34144 ft 490 kts 281°
2026-05-08 08:56 53.36157 1.50180 34142 ft 488 kts 282°
2026-05-08 08:57 53.37652 1.39178 34152 ft 484 kts 281°
2026-05-08 08:57 53.39134 1.28181 34151 ft 484 kts 281°
2026-05-08 08:58 53.40607 1.17170 34142 ft 484 kts 281°
2026-05-08 08:58 53.42067 1.06171 34138 ft 484 kts 281°
2026-05-08 08:59 53.43518 0.95160 34129 ft 483 kts 282°
2026-05-08 08:59 53.44959 0.84140 34128 ft 483 kts 281°
2026-05-08 09:00 53.46387 0.73129 34121 ft 483 kts 281°
2026-05-08 09:00 53.47807 0.62102 34121 ft 483 kts 281°
2026-05-08 09:01 53.49216 0.51067 34116 ft 484 kts 281°
2026-05-08 09:01 53.50612 0.40057 34108 ft 482 kts 281°
2026-05-08 09:02 53.51996 0.29046 34105 ft 481 kts 281°
2026-05-08 09:02 53.53368 0.18048 34101 ft 481 kts 281°
2026-05-08 09:03 53.54733 0.07019 34106 ft 482 kts 281°
2026-05-08 09:03 53.56075 -0.03929 34120 ft 480 kts 282°
2026-05-08 09:04 53.57407 -0.14860 34122 ft 476 kts 282°
2026-05-08 09:04 53.58725 -0.25773 34121 ft 476 kts 282°
2026-05-08 09:05 53.60033 -0.36699 34124 ft 476 kts 281°
2026-05-08 09:05 53.61330 -0.47620 34121 ft 476 kts 281°
2026-05-08 09:06 53.62618 -0.58551 34117 ft 476 kts 281°
2026-05-08 09:06 53.63896 -0.69493 34111 ft 476 kts 281°
2026-05-08 09:07 53.65165 -0.80443 34103 ft 476 kts 281°
2026-05-08 09:07 53.66422 -0.91392 34091 ft 476 kts 281°